Regional Weather Roundup
Issued by NWS

Home | Current Version | Previous Version | Text Only | Print | Product List | Glossary On
Versions: 1 2 3 4 5 6 7 8 9 10 11 12 13 14 15 16 17 18 19 20 21 22 23 24 25 26 27 28 29 30 31 32 33 34 35 36 37 38 39 40 41 42 43 44 45 46 47 48 49 50
000
ASUS44 KLIX 250211
RWRLA
LOUISIANA WEATHER ROUNDUP
NATIONAL WEATHER SERVICE NEW ORLEANS LA
900 PM CDT SUN JUL 24 2016

NOTE: "FAIR" INDICATES FEW OR NO CLOUDS BELOW 12,000 FEET WITH NO
      SIGNIFICANT WEATHER AND/OR OBSTRUCTIONS TO VISIBILITY.
      SKY/WX - SKY CONDITION AND SIGNIFICANT WEATHER.
      TMP - AIR TEMPERATURE.    DP   - DEWPOINT TEMPERATURE.
      RH  - RELATIVE HUMIDITY.  PRES - PRESSURE.
      HX  - HEAT INDEX.         WCI  - WIND CHILL INDEX.

*  THESE STATIONS ARE NOT NWS OR FAA STATIONS AND ARE NOT UNDER
   NWS QUALITY CONTROL.

LAZ040-048-061>063-065-066-069-250300-
SOUTHEAST LOUISIANA

CITY           SKY/WX    TMP DP  RH WIND       PRES   REMARKS
N.O. AUDUBON     N/A     82  78  87 MISG        N/A
N.O. INTL ARPT CLOUDY    84  78  82 CALM      29.97R HX  95
N.O. LAKEFRONT CLOUDY    85  74  69 E5        29.97R
N.O. DOWNTOWN* FAIR      85  75  72 NE3       29.98R
RESERVE*       FAIR      79  77  92 CALM      29.96S
SLIDELL        CLOUDY    78  76  93 CALM      29.97R
BATON ROUGE    LGT RAIN  80  73  79 E6        29.97R
BOOTHVILLE     PTCLDY    81  77  88 CALM      29.98R
BELLE CHASSE   CLOUDY    79  78  97 CALM      29.97R
BOGALUSA*      FAIR      78  74  87 CALM      30.00R
GALLIANO*      CLOUDY    74  74  99 CALM      29.97R
NEW ROADS*     FAIR      79  75  87 CALM      29.97R
GONZALES*      FAIR      77  76  96 CALM      29.95S
HAMMOND*       CLOUDY    77  73  88 CALM      29.97S
HOUMA*         CLOUDY    77  75  93 NE3       29.97R
PORT FOURCHON* CLEAR     82  77  83 CALM      29.97R

$$

LAZ041-044-053-054-250300-
SOUTHWEST LOUISIANA

CITY           SKY/WX    TMP DP  RH WIND       PRES   REMARKS
LAKE CHARLES   CLOUDY    81  77  88 E5        29.95R
LAFAYETTE      CLOUDY    81  77  88 CALM      29.96R
PATTERSON      CLOUDY    79  77  94 CALM      29.97R
SALT POINT       N/A     81  77  88 SE3       29.95R
NEW IBERIA     CLOUDY    81  78  91 CALM      29.96R
CHENAULT AIRPK CLEAR     81  75  83 E5        29.95R

$$

LAZ027-028-250300-
CENTRAL LOUISIANA

CITY           SKY/WX    TMP DP  RH WIND       PRES   REMARKS
FORT POLK      CLOUDY    79  73  83 N5        29.97R
ALEXANDRIA INT CLOUDY    77  73  87 E3        29.94R
ALEXANDRIA     CLOUDY    78  75  90 CALM      29.97R

$$

LAZ001-002-250300-
NORTHWEST LOUISIANA

CITY           SKY/WX    TMP DP  RH WIND       PRES   REMARKS
SHREVEPORT     CLOUDY    79  71  76 E9        29.95S
BARKSDALE AFB  CLOUDY    76  72  88 S7        29.95R
DTN SHREVEPORT CLOUDY    78  71  79 SE5       29.95S

$$

LAZ014-016-250300-
NORTHEAST LOUISIANA

CITY           SKY/WX    TMP DP  RH WIND       PRES   REMARKS
MONROE         CLOUDY    77  77 100 E5        29.96S
TALLULAH       PTCLDY    79  76  90 SE5       29.97R

$$




USA.gov is the U.S. government's official web portal to all federal, state and local government web resources and services.